Tracking 23885 objects as of 28-Nov-2021
HD Live streaming from Space Station
objects crossing your sky now

CZ-4C DEB

Track CZ-4C DEB now!
10-day predictions


NORAD ID: 43628
Int'l Code: 2013-065F
Perigee: 709.2 km
Apogee: 1,042.3 km
Inclination: 100.5 °
Period: 102.3 minutes
Semi major axis: 7246 km
RCS: Unknown
Launch date: November 20, 2013
Source: People's Republic of China (PRC)
Launch site: Taiyaun Space Center, China (TSC)

Note: This is SATELLITE DEBRIS
aabbcc
Your satellite tracking list
Your tracking list is empty




NASA's NSSDC Master Catalog

Two Line Element Set (TLE):
1 43628U 13065E   21331.43874997  .00002322  00000-0  11140-2 0  9997
2 43628 100.5470 329.1373 0229836   9.1360 351.3879 14.07313332167488
Source of the keplerian elements: AFSPC